FW0451 Weather Reports


Display with metric or nautical units.
time (UTC)temp
F
wind
direction
speed
MPH
gust
MPH
rain 1hr
in
rain 24hr
in
rain mn
in
humidity
%
barometer
mb
20260503040027 46 19 0.0 2.0 0.00 0.00 0.00 82 1008.4
20260503034526 46 20 0.0 1.0 0.00 0.00 0.00 80 1008.5
20260503033025 46 20 1.0 4.0 0.00 0.00 0.00 82 1008.6
20260503031522 46 19 0.0 2.0 0.00 0.00 0.00 79 1008.4
20260503030018 47 20 0.0 2.0 0.00 0.00 0.00 77 1008.5
20260503024515 48 20 3.0 6.0 0.00 0.00 0.00 71 1008.4
20260503023012 49 19 1.0 5.0 0.00 0.00 0.00 71 1007.8
20260503021517 49 19 2.0 5.0 0.00 0.00 0.00 70 1007.3
20260503020010 51 19 2.0 9.0 0.00 0.00 0.00 64 1007.3
20260503014509 52 19 1.0 4.0 0.00 0.00 0.00 60 1007.3
20260503013009 53 20 0.0 1.0 0.00 0.00 0.00 61 1007.2
20260503011510 53 20 0.0 2.0 0.00 0.00 0.00 58 1007.1
20260503010008 52 20 3.0 7.0 0.00 0.00 0.00 60 1007.3
20260503004507 50 20 5.0 10.0 0.00 0.00 0.00 64 1007.2
20260503003005 51 20 10.0 19.0 0.00 0.00 0.00 64 1007.1
20260503001505 53 20 4.0 13.0 0.00 0.00 0.00 52 1007.6
20260503000007 55 20 3.0 10.0 0.00 0.00 0.00 51 1007.1
20260502234618 56 20 7.0 12.0 0.00 0.00 0.00 40 1006.6
20260502233057 56 20 7.0 24.0 0.00 0.00 0.00 41 1006.7
20260502231557 54 20 5.0 18.0 0.00 0.00 0.00 46 1007.1
20260502230055 57 20 13.0 32.0 0.00 0.00 0.00 40 1007.4
20260502224555 59 20 1.0 12.0 0.00 0.00 0.00 36 1007.2
20260502223102 60 20 6.0 14.0 0.00 0.00 0.00 34 1007.2
20260502221555 60 19 5.0 10.0 0.00 0.00 0.00 35 1007.5
20260502220056 59 19 5.0 13.0 0.00 0.00 0.00 34 1007.7
20260502214608 59 20 8.0 13.0 0.00 0.00 0.00 34 1007.8
20260502213105 60 20 5.0 13.0 0.00 0.00 0.00 33 1008.0
20260502211551 59 19 7.0 12.0 0.00 0.00 0.00 34 1008.2
20260502210044 61 19 2.0 10.0 0.00 0.00 0.00 31 1008.4
20260502204543 61 20 3.0 13.0 0.00 0.00 0.00 31 1008.6
20260502203106 61 20 9.0 15.0 0.00 0.00 0.00 31 1008.5
20260502201544 60 20 4.0 11.0 0.00 0.00 0.00 32 1008.5
20260502200047 61 20 8.0 16.0 0.00 0.00 0.00 31 1008.5
20260502194539 61 20 5.0 9.0 0.00 0.00 0.00 31 1008.7
20260502193038 60 20 5.0 19.0 0.00 0.00 0.00 31 1008.7
20260502191543 61 20 7.0 15.0 0.00 0.00 0.00 31 1009.0
20260502190037 60 20 5.0 17.0 0.00 0.00 0.00 31 1009.1
20260502184534 60 19 4.0 10.0 0.00 0.00 0.00 34 1009.0
20260502183034 60 20 4.0 10.0 0.00 0.00 0.00 32 1009.1
20260502181532 59 20 5.0 11.0 0.00 0.00 0.00 32 1009.2
20260502163036 57 20 3.0 17.0 0.00 0.00 0.00 33 1009.3
20260502161527 56 20 5.0 9.0 0.00 0.00 0.00 36 1009.2
20260502151512 53 20 3.0 7.0 0.00 0.00 0.00 41 1009.3
20260502130107 52 20 0.0 3.0 0.00 0.00 0.00 34 1008.7
20260502123117 52 19 0.0 6.0 0.00 0.00 0.00 32 1008.7
20260502121558 52 20 2.0 6.0 0.00 0.00 0.00 26 1008.7
20260502120111 52 20 5.0 12.0 0.00 0.00 0.00 24 1008.8
20260502114551 52 20 7.0 10.0 0.00 0.00 0.00 24 1008.8
20260502113051 52 20 1.0 4.0 0.00 0.00 0.00 23 1009.0
20260502111547 52 20 5.0 9.0 0.00 0.00 0.00 23 1009.0
20260502110046 53 20 7.0 10.0 0.00 0.00 0.00 23 1009.1
20260502104543 53 20 6.0 9.0 0.00 0.00 0.00 23 1009.1
20260502103043 53 20 5.0 10.0 0.00 0.00 0.00 23 1009.0
20260502101541 53 20 6.0 9.0 0.00 0.00 0.00 22 1009.1
20260502071515 54 20 7.0 12.0 0.00 0.00 0.00 22 1010.7
20260502070017 54 20 5.0 11.0 0.00 0.00 0.00 22 1010.8
20260502064511 54 20 6.0 12.0 0.00 0.00 0.00 21 1010.8
20260502063011 54 20 8.0 13.0 0.00 0.00 0.00 21 1010.7
20260502061511 54 20 8.0 13.0 0.00 0.00 0.00 20 1010.8
20260502060012 55 20 7.0 13.0 0.00 0.00 0.00 20 1010.9
20260502054510 55 20 7.0 13.0 0.00 0.00 0.00 20 1011.0
20260502053009 55 20 8.0 12.0 0.00 0.00 0.00 20 1010.9
20260502051508 55 20 5.0 11.0 0.00 0.00 0.00 20 1011.0
20260502050011 55 20 6.0 10.0 0.00 0.00 0.00 20 1011.0
20260502044507 54 20 6.0 11.0 0.00 0.00 0.00 20 1010.8
20260502043007 54 20 7.0 12.0 0.00 0.00 0.00 20 1010.8
20260502041507 54 20 4.0 7.0 0.00 0.00 0.00 19 1010.7